This demonstration page uses our WeatherBlox Daily Observations layout. Learn more.

Left ArrowRight Arrow

44.31136, -96.79839

Hourly Observations for July 13, 2015

Temp ( °F °C ) Dew Point ( °F °C ) Humidity (%) Winds ( mph kmh ) Pressure ( in mb ) Visibility ( mi km ) Precip ( " mm )
12:15 am 00:15 Clear 73 23 64 18 74 74 SW 5 7 29.68 1005 10 16 0.00 0.00
12:35 am 00:35 Clear 73 23 64 18 74 74 WSW 6 9 29.68 1005 10 16 0.00 0.00
12:55 am 00:55 Clear 72 22 64 18 78 78 Calm 29.65 1004 10 16 0.00 0.00
1:15 am 01:15 Clear 72 22 64 18 78 78 WSW 3 6 29.68 1005 10 16 0.00 0.00
1:35 am 01:35 Clear 72 22 64 18 78 78 Calm 29.68 1005 10 16 0.00 0.00
1:55 am 01:55 Clear 72 22 64 18 78 78 SSE 3 6 29.65 1004 10 16 0.00 0.00
2:15 am 02:15 Clear 73 23 64 18 74 74 NNE 7 11 29.65 1004 9 14 0.00 0.00
2:35 am 02:35 Mostly Clear with Nearby Thunderstorms 70 21 64 18 83 83 WSW 5 7 29.68 1005 10 16 0.00 0.00
2:55 am 02:55 Partly Cloudy with Nearby Thunderstorms 72 22 64 18 78 78 WSW 5 7 29.68 1005 10 16 0.00 0.00
3:15 am 03:15 Partly Cloudy with Nearby Thunderstorms 73 23 64 18 74 74 W 24 39 29.71 1006 10 16 0.00 0.00
3:35 am 03:35 Mostly Cloudy with Nearby Thunderstorms 73 23 61 16 65 65 SW 29 46 29.71 1006 10 16 0.00 0.00
3:55 am 03:55 Mostly Cloudy 73 23 57 14 57 57 ENE 7 11 29.65 1004 10 16 0.01 0.25
4:15 am 04:15 Partly Cloudy 72 22 57 14 61 61 S 3 6 29.65 1004 10 16 0.00 0.00
4:35 am 04:35 Clear 70 21 59 15 69 69 NNW 5 7 29.68 1005 10 16 0.00 0.00
4:55 am 04:55 Clear 72 22 57 14 61 61 N 5 7 29.65 1004 10 16 0.00 0.00
5:15 am 05:15 Clear 72 22 57 14 61 61 NNW 5 7 29.65 1004 10 16 0.00 0.00
5:35 am 05:35 Clear 68 20 57 14 69 69 Calm 29.71 1006 10 16 0.00 0.00
5:55 am 05:55 Clear 64 18 57 14 78 78 Calm 29.71 1006 10 16 0.00 0.00
6:15 am 06:15 Sunny 64 18 57 14 78 78 W 5 7 29.71 1006 10 16 0.00 0.00
6:35 am 06:35 Sunny 66 19 57 14 73 73 WSW 5 7 29.71 1006 10 16 0.00 0.00
6:55 am 06:55 Sunny 66 19 57 14 73 73 W 6 9 29.71 1006 10 16 0.00 0.00
7:15 am 07:15 Sunny 68 20 59 15 73 73 W 7 11 29.71 1006 10 16 0.00 0.00
7:35 am 07:35 Sunny 70 21 61 16 73 73 W 6 9 29.71 1006 10 16 0.00 0.00
7:55 am 07:55 Sunny 72 22 63 17 73 73 WNW 9 15 29.68 1005 10 16 0.00 0.00
8:15 am 08:15 Sunny 72 22 63 17 73 73 WNW 9 15 29.68 1005 10 16 0.00 0.00
8:35 am 08:35 Sunny 73 23 63 17 69 69 WNW 8 13 29.71 1006 10 16 0.00 0.00
8:55 am 08:55 Sunny 75 24 64 18 69 69 W 8 13 29.71 1006 10 16 0.00 0.00
9:15 am 09:15 Sunny 75 24 64 18 69 69 NW 10 17 29.71 1006 10 16 0.00 0.00
9:35 am 09:35 Sunny 79 26 64 18 61 61 NW 12 19 29.71 1006 10 16 0.00 0.00
9:55 am 09:55 Sunny 79 26 64 18 61 61 NW 12 19 29.71 1006 10 16 0.00 0.00
10:15 am 10:15 Sunny 79 26 64 18 61 61 NW 12 19 29.71 1006 10 16 0.00 0.00
10:35 am 10:35 Sunny 81 27 64 18 58 58 WNW 12 19 29.71 1006 10 16 0.00 0.00
10:55 am 10:55 Sunny 81 27 63 17 54 54 WNW 9 15 29.71 1006 10 16 0.00 0.00
11:15 am 11:15 Sunny 82 28 63 17 51 51 WNW 13 20 29.68 1005 10 16 0.00 0.00
11:35 am 11:35 Sunny 82 28 63 17 51 51 WNW 13 20 29.68 1005 10 16 0.00 0.00
11:55 am 11:55 Sunny 84 29 63 17 48 48 WNW 14 22 29.68 1005 10 16 0.00 0.00
12:15 pm 12:15 Sunny 84 29 63 17 48 48 NW 14 22 29.68 1005 10 16 0.00 0.00
12:35 pm 12:35 Sunny 84 29 61 16 45 45 NW 17 28 29.68 1005 10 16 0.00 0.00
12:55 pm 12:55 Sunny 84 29 61 16 45 45 WNW 20 31 29.68 1005 10 16 0.00 0.00
1:15 pm 13:15 Sunny 86 30 61 16 43 43 WNW 16 26 29.68 1005 10 16 0.00 0.00
1:35 pm 13:35 Sunny 86 30 61 16 43 43 W 18 30 29.68 1005 7 11 0.00 0.00
1:55 pm 13:55 Sunny 86 30 61 16 43 43 W 15 24 29.68 1005 10 16 0.00 0.00
2:15 pm 14:15 Sunny 88 31 61 16 40 40 WNW 16 26 29.65 1004 10 16 0.00 0.00
2:35 pm 14:35 Sunny 88 31 63 17 43 43 WNW 20 31 29.65 1004 10 16 0.00 0.00
2:55 pm 14:55 Sunny 88 31 63 17 43 43 W 18 30 29.65 1004 10 16 0.00 0.00
3:15 pm 15:15 Sunny 88 31 63 17 43 43 WNW 17 28 29.65 1004 10 16 0.00 0.00
3:35 pm 15:35 Mostly Sunny 88 31 64 18 46 46 W 15 24 29.65 1004 10 16 0.00 0.00
3:55 pm 15:55 Mostly Sunny 88 31 64 18 46 46 W 17 28 29.65 1004 10 16 0.00 0.00
4:15 pm 16:15 Mostly Sunny 88 31 64 18 46 46 W 16 26 29.62 1003 10 16 0.00 0.00
4:35 pm 16:35 Sunny 90 32 61 16 38 38 WNW 21 33 29.62 1003 10 16 0.00 0.00
4:55 pm 16:55 Sunny 90 32 61 16 38 38 W 18 30 29.62 1003 10 16 0.00 0.00
5:15 pm 17:15 Sunny 90 32 61 16 38 38 W 17 28 29.62 1003 10 16 0.00 0.00
5:35 pm 17:35 Sunny 90 32 61 16 38 38 WNW 15 24 29.62 1003 10 16 0.00 0.00
5:55 pm 17:55 Sunny 90 32 61 16 38 38 WNW 16 26 29.62 1003 10 16 0.00 0.00
6:55 pm 18:55 Sunny 88 31 61 16 40 40 NW 12 19 29.62 1003 10 16 0.00 0.00
7:15 pm 19:15 Sunny 86 30 61 16 43 43 NW 13 20 29.62 1003 10 16 0.00 0.00
7:35 pm 19:35 Sunny 84 29 63 17 48 48 WNW 8 13 29.62 1003 10 16 0.00 0.00
7:55 pm 19:55 Sunny 84 29 63 17 48 48 WNW 7 11 29.62 1003 10 16 0.00 0.00
8:15 pm 20:15 Sunny 82 28 63 17 51 51 W 6 9 29.62 1003 10 16 0.00 0.00
8:35 pm 20:35 Sunny 81 27 64 18 58 58 W 7 11 29.62 1003 10 16 0.00 0.00
8:55 pm 20:55 Sunny 79 26 63 17 58 58 W 8 13 29.65 1004 10 16 0.00 0.00
9:15 pm 21:15 Clear 77 25 63 17 61 61 WNW 6 9 29.65 1004 10 16 0.00 0.00
9:35 pm 21:35 Clear 77 25 63 17 61 61 W 7 11 29.65 1004 10 16 0.00 0.00
9:55 pm 21:55 Clear 75 24 63 17 65 65 W 6 9 29.65 1004 10 16 0.00 0.00
10:15 pm 22:15 Clear 75 24 63 17 65 65 W 6 9 29.65 1004 10 16 0.00 0.00
10:35 pm 22:35 Clear 73 23 63 17 69 69 W 7 11 29.65 1004 10 16 0.00 0.00
10:55 pm 22:55 Clear 72 22 61 16 69 69 NW 6 9 29.68 1005 10 16 0.00 0.00
11:15 pm 23:15 Clear 72 22 61 16 69 69 NW 7 11 29.68 1005 10 16 0.00 0.00
11:35 pm 23:35 Clear 72 22 61 16 69 69 NW 3 6 29.68 1005 10 16 0.00 0.00
11:55 pm 23:55 Clear 72 22 61 16 69 69 Calm 29.68 1005 10 16 0.00 0.00

Powered by AerisWeather